Weather History for LHDC - September, 2013

Change the Weather History Date:

Tuesday, September 3, 2013

  Actual Average Record
Temperature  
Mean Temperature 66 °F -  
Max Temperature 72 °F 71 °F - ()
Min Temperature 59 °F 50 °F - ()
Growing Degree Days 16 (Base 50)    
Moisture  
Dew Point 49 °F    
Average Humidity 56    
Maximum Humidity 77    
Minimum Humidity 29    
Precipitation  
Precipitation 0.00 in 0.05 in - ()
Sea Level Pressure  
Sea Level Pressure 30.04 in    
Wind  
Wind Speed 10 mph ()    
Max Wind Speed 15 mph    
Max Gust Speed -    
Visibility 6.2 miles    
Events Rain    
T = Trace of Precipitation, MM = Missing Value Source: Averaged Metar Reports

Daily Weather History Graph

Daily Weather History Graph

Search for Another Location

Airport or City:

Trip Planner

Search our weather history database for the weather conditions in past years. The results will help you decide how hot, cold, wet, or windy it might be!

Date:

Astronomy

Sep. 03, 2013 Rise Set
Actual Time 5:54 AM CEST 7:09 PM CEST
Civil Twilight 5:23 AM CEST 7:41 PM CEST
Nautical Twilight 4:44 AM CEST 8:19 PM CEST
Astronomical Twilight 4:03 AM CEST 9:00 PM CEST
Moon 3:46 AM CEST (9/3) 5:49 PM CEST (9/3)
Length of Visible Light 14h 18m
Length of Day
13h 15m
Waning Crescent, 4% of the Moon is Illuminated
Sep 3
Waning Crescent
Sep 5
New
Sep 12
First Quarter
Sep 19
Full
Sep 27
Last Quarter

Hourly Weather History & Observations

Time (CEST) Temp. Dew Point Humidity Pressure Visibility Wind Dir Wind Speed Gust Speed Precip Events Conditions
2:28 AM 59.0 °F 48.2 °F 67% 30.04 in - SW 13.8 mph - N/A   Unknown
4:45 AM 60.8 °F 46.4 °F 59% 30.01 in 6.2 mi WSW 13.8 mph - N/A   Mostly Cloudy
5:15 AM 60.8 °F 48.2 °F 63% 30.01 in 6.2 mi WSW 12.7 mph - N/A   Mostly Cloudy
5:45 AM 59.0 °F 48.2 °F 67% 29.98 in 6.2 mi WSW 13.8 mph - N/A   Mostly Cloudy
6:15 AM 59.0 °F 48.2 °F 67% 30.01 in 6.2 mi WSW 11.5 mph - N/A   Mostly Cloudy
6:45 AM 59.0 °F 50.0 °F 72% 30.01 in 6.2 mi WSW 9.2 mph - N/A Rain Light Rain
7:02 AM - - N/A% - 6.2 mi West 11.5 mph - N/A   Mostly Cloudy
7:15 AM 59.0 °F 50.0 °F 72% 30.01 in 6.2 mi WSW 10.4 mph - N/A Rain Light Rain
7:45 AM 59.0 °F 51.8 °F 77% 30.01 in 6.2 mi SW 10.4 mph - N/A   Mostly Cloudy
8:15 AM 60.8 °F 51.8 °F 72% 30.01 in 6.2 mi SW 12.7 mph - N/A   Mostly Cloudy
8:45 AM 62.6 °F 51.8 °F 68% 30.01 in 6.2 mi WSW 12.7 mph - N/A   Mostly Cloudy
9:15 AM 64.4 °F 51.8 °F 64% 30.01 in 6.2 mi West 15.0 mph - N/A   Scattered Clouds
9:45 AM 66.2 °F 51.8 °F 60% 30.01 in 6.2 mi West 12.7 mph - N/A   Scattered Clouds
10:00 AM - - N/A% - 6.2 mi West 15.0 mph - N/A   Scattered Clouds
10:15 AM 68.0 °F 51.8 °F 56% 30.01 in 6.2 mi WNW 11.5 mph - N/A   Scattered Clouds
10:45 AM 68.0 °F 51.8 °F 56% 30.04 in 6.2 mi WNW 9.2 mph - N/A   Scattered Clouds
11:15 AM 66.2 °F 51.8 °F 60% 30.04 in 6.2 mi NNW 8.1 mph - N/A   Mostly Cloudy
11:45 AM 66.2 °F 51.8 °F 60% 30.04 in 6.2 mi North 6.9 mph - N/A   Mostly Cloudy
12:15 PM 68.0 °F 53.6 °F 60% 30.04 in 6.2 mi North 6.9 mph - N/A   Mostly Cloudy
12:45 PM 66.2 °F 53.6 °F 64% 30.06 in 6.2 mi NNE 9.2 mph - N/A   Mostly Cloudy
1:00 PM - - N/A% - 6.2 mi North 13.8 mph - N/A   Mostly Cloudy
1:15 PM 66.2 °F 53.6 °F 64% 30.06 in 6.2 mi ENE 9.2 mph - N/A   Scattered Clouds
1:45 PM 68.0 °F 53.6 °F 60% 30.04 in 6.2 mi NE 3.5 mph - N/A   Partly Cloudy
2:00 PM 69 °F 53 °F 46% 30.03 in 22 mi NE 4.5 mph - -   Partly Cloudy
2:15 PM 69.8 °F 53.6 °F 56% 30.04 in 6.2 mi East 3.5 mph - N/A   Partly Cloudy
2:45 PM 71.6 °F 53.6 °F 53% 30.04 in 6.2 mi NE 8.1 mph - N/A   Partly Cloudy
3:15 PM 71.6 °F 51.8 °F 50% 30.06 in 6.2 mi NE 3.5 mph - N/A   Mostly Cloudy
3:45 PM 71.6 °F 51.8 °F 50% 30.04 in 6.2 mi NNE 4.6 mph - N/A   Scattered Clouds
4:15 PM 71.6 °F 51.8 °F 50% 30.04 in 6.2 mi NNE 8.1 mph - N/A   Partly Cloudy
4:45 PM 71.6 °F 53.6 °F 53% 30.04 in 6.2 mi NNE 5.8 mph - N/A   Partly Cloudy
5:15 PM 71.6 °F 50.0 °F 46% 30.06 in 6.2 mi NNE 11.5 mph - N/A   Partly Cloudy
5:45 PM 71.6 °F 48.2 °F 43% 30.06 in 6.2 mi NNE 10.4 mph - N/A   Partly Cloudy
6:15 PM 71.6 °F 41.0 °F 33% 30.06 in - NNE 10.4 mph - N/A   Clear
6:45 PM 69.8 °F 41.0 °F 35% 30.09 in - NNE 11.5 mph - N/A   Clear
7:15 PM 66.2 °F 42.8 °F 43% 30.09 in - NNE 5.8 mph - N/A   Clear
7:45 PM 66.2 °F 41.0 °F 40% 30.12 in - NNE 5.8 mph - N/A   Clear
8:00 PM 66 °F 42 °F 29% 30.11 in 22 mi NNE 4.5 mph - -   Partly Cloudy
8:15 PM 64.4 °F 41.0 °F 42% 30.12 in - North 5.8 mph - N/A   Clear
8:45 PM 64.4 °F 42.8 °F 45% 30.15 in - NNE 5.8 mph - N/A   Clear
9:00 PM - - N/A% - - North - - N/A   Unknown